Date,TemperatureHighF,TemperatureAvgF,TemperatureLowF,DewpointHighF,DewpointAvgF,DewpointLowF,HumidityHigh,HumidityAvg,HumidityLow,PressureMaxIn,PressureMinIn,WindSpeedMaxMPH,WindSpeedAvgMPH,GustSpeedMaxMPH,PrecipitationSumIn
2013-1-1,46,43,37,43,37,22,92,80,53,30.02,29.84,1,0,2,0.05
2013-1-2,45,41,38,41,38,35,93,87,74,30.03,29.85,2,0,2,0.00
2013-1-3,45,37,29,36,30,18,91,75,45,30.11,29.95,1,0,2,0.00
2013-1-4,50,32,24,23,16,10,74,53,24,30.18,30.05,2,0,3,0.00
2013-1-5,48,35,24,33,18,5,84,53,20,30.22,30.08,2,0,2,0.01
2013-1-6,56,42,34,38,31,22,87,67,36,30.09,29.95,3,1,4,0.00
2013-1-7,59,36,28,33,23,19,77,60,31,30.24,30.04,2,0,3,0.00
2013-1-8,50,37,25,43,31,19,88,81,72,30.29,30.15,1,0,2,0.00
2013-1-9,53,49,44,51,47,40,93,92,88,30.36,30.26,1,0,1,0.00
2013-1-10,59,50,44,51,46,41,94,86,73,30.41,30.23,2,0,2,0.11
2013-1-11,56,52,50,55,51,47,95,94,91,30.25,30.06,2,0,3,0.24
2013-1-12,64,58,55,59,55,52,96,90,76,30.17,30.05,3,0,5,0.00
2013-1-13,57,56,54,55,53,52,95,91,84,30.12,30.01,5,1,6,0.01
2013-1-14,58,56,55,56,55,54,96,95,94,30.09,30.02,4,0,5,0.00
2013-1-15,56,53,51,54,52,50,96,95,94,30.08,29.95,2,0,3,0.00
2013-1-16,55,52,49,54,50,47,96,95,94,29.98,29.90,2,0,2,0.00
2013-1-17,50,44,32,48,43,26,96,94,78,30.05,29.63,2,0,3,0.00
2013-1-18,54,35,27,32,23,16,82,63,36,30.33,30.05,2,0,2,0.00
2013-1-19,54,35,23,31,23,16,88,66,30,30.31,30.05,2,0,3,0.00
2013-1-20,58,43,34,33,23,16,63,46,28,30.08,29.95,3,0,5,0.00
2013-1-21,52,37,28,30,19,10,67,49,35,30.01,29.88,3,1,5,0.00
2013-1-22,38,27,20,10,7,4,51,44,27,30.05,29.83,4,1,4,0.00
2013-1-23,46,33,25,26,18,9,66,55,41,30.13,29.95,3,1,4,0.00
2013-1-24,54,37,22,29,16,6,72,46,18,30.22,29.88,6,1,6,0.00
2013-1-25,43,28,18,39,20,3,92,73,50,30.23,29.94,3,0,5,0.01
2013-1-26,52,39,29,36,21,13,85,51,24,30.19,29.96,2,0,3,0.00
2013-1-27,45,33,25,32,25,18,87,72,55,30.31,30.16,2,0,2,0.00
2013-1-28,52,43,34,48,39,27,92,84,74,30.29,30.18,3,0,5,0.02
2013-1-29,57,50,40,55,46,36,95,88,77,30.20,29.99,5,0,5,0.01
2013-1-30,57,52,38,56,51,35,96,94,85,29.99,29.51,7,2,8,0.07
2013-1-31,38,31,24,35,21,18,89,69,48,29.93,29.55,5,1,6,0.00
2013-2-1,41,27,19,26,11,2,83,52,30,30.14,29.84,5,1,6,0.00
2013-2-2,35,26,18,28,16,-5,92,68,30,30.13,29.88,3,0,4,0.00
2013-2-3,43,31,28,30,24,20,89,74,52,29.91,29.79,5,1,5,0.07
2013-2-4,44,31,27,24,18,15,72,60,38,29.99,29.87,4,0,4,0.00
2013-2-5,52,40,31,37,28,21,80,63,43,29.95,29.82,2,0,2,0.00
2013-2-6,64,44,35,34,26,18,79,53,22,30.11,29.93,1,0,1,0.00
2013-2-7,45,40,36,37,32,24,89,73,57,30.12,29.85,1,0,1,0.00
2013-2-8,48,40,34,42,34,23,93,80,56,29.99,29.82,3,0,3,0.00
2013-2-9,65,41,31,27,20,11,66,45,21,30.20,29.98,1,0,1,0.00
2013-2-10,47,39,32,40,27,21,88,64,41,30.25,30.05,1,0,1,0.01
2013-2-11,51,47,43,49,40,18,94,79,35,30.04,29.96,1,0,1,0.00
2013-2-12,52,43,37,34,25,18,82,51,30,30.01,29.84,2,0,2,0.00
2013-2-13,43,37,32,38,33,26,93,84,74,29.84,29.62,3,0,4,0.00
2013-2-14,53,37,27,33,25,18,85,65,29,29.96,29.76,2,0,3,0.00
2013-2-15,54,38,27,32,27,22,83,65,33,29.99,29.87,4,0,4,0.00
2013-2-16,35,27,18,27,17,6,78,66,40,29.87,29.68,3,0,5,0.00
2013-2-17,36,23,15,10,6,2,60,49,31,30.08,29.79,5,1,5,0.00
2013-2-18,53,34,20,28,18,10,70,53,32,30.14,30.05,4,0,4,0.00
2013-2-19,47,36,30,36,24,12,91,62,40,30.07,29.83,4,1,5,0.00
2013-2-20,44,34,26,12,5,-1,48,31,20,29.99,29.89,4,0,4,0.00
2013-2-21,57,40,27,31,17,7,86,43,21,30.07,29.94,2,0,3,0.00
2013-2-22,45,36,31,43,33,28,93,88,84,30.11,29.94,2,0,2,0.00
2013-2-23,49,46,41,47,44,39,95,93,91,29.99,29.75,1,0,2,0.00
2013-2-24,59,43,32,39,28,17,94,60,23,29.95,29.76,3,0,4,0.00
2013-2-25,47,37,30,31,26,20,86,65,49,30.00,29.86,2,0,3,0.00
2013-2-26,42,38,35,40,35,30,94,90,80,29.86,29.53,3,1,5,0.00
2013-2-27,52,39,31,33,28,23,82,67,34,29.73,29.56,4,1,6,0.00
2013-2-28,36,30,27,28,22,20,78,71,66,29.79,29.64,3,0,6,0.00
2013-3-1,40,31,26,28,23,20,81,74,57,29.81,29.70,2,0,2,0.00
2013-3-2,35,28,22,25,21,15,84,75,64,29.79,29.68,1,0,5,0.00
2013-3-3,39,25,18,18,13,11,76,63,41,29.84,29.71,4,0,4,0.00
2013-3-4,51,33,20,24,16,9,70,50,21,29.97,29.82,2,0,5,0.00
2013-3-5,47,39,29,45,33,21,95,82,59,29.97,29.59,3,0,4,0.00
2013-3-6,31,26,21,23,20,16,86,78,70,29.97,29.58,5,1,5,0.00
2013-3-7,60,36,24,31,23,17,85,62,24,30.10,29.94,2,0,2,0.00
2013-3-8,63,40,26,23,18,8,75,46,20,30.17,30.07,3,0,3,0.00
2013-3-9,61,41,28,31,24,19,73,52,30,30.20,30.08,2,0,2,0.00
2013-3-10,62,45,33,36,30,24,76,56,36,30.18,30.07,3,0,4,0.00
2013-3-11,49,46,44,47,43,32,94,89,58,30.09,29.76,6,0,6,0.00
2013-3-12,59,47,37,47,36,23,94,70,35,29.96,29.71,3,0,4,0.00
2013-3-13,43,34,25,24,20,14,66,57,38,30.02,29.90,3,1,5,0.00
2013-3-14,52,32,20,20,12,6,69,47,24,30.12,29.98,2,0,4,0.00
2013-3-15,64,48,33,39,31,13,73,53,32,30.05,29.92,4,1,4,0.00
2013-3-16,70,58,52,44,40,37,61,52,35,29.93,29.80,5,1,6,0.00
2013-3-17,65,56,48,46,42,38,72,60,41,29.96,29.87,3,0,4,0.00
2013-3-18,52,44,40,44,40,38,92,86,71,29.97,29.80,3,0,3,0.00
2013-3-19,55,43,37,42,27,13,92,58,24,29.99,29.77,5,0,5,0.03
2013-3-20,52,38,29,24,11,2,78,34,17,29.99,29.76,3,0,5,0.00
2013-3-21,38,28,20,23,9,2,76,46,32,29.81,29.61,4,1,5,0.00
2013-3-22,41,31,22,25,15,8,63,51,35,29.93,29.81,2,0,3,0.00
2013-3-23,59,42,35,48,36,22,90,78,59,29.92,29.78,2,0,2,0.00
2013-3-24,47,41,36,44,37,33,90,87,79,29.84,29.44,2,0,3,0.01
2013-3-25,36,28,23,33,21,17,89,76,66,29.79,29.45,2,0,3,0.00
2013-3-26,33,26,22,22,19,16,79,72,59,30.03,29.71,2,0,5,0.00
2013-3-27,49,33,23,28,18,15,72,57,32,30.11,29.96,3,0,3,0.00
2013-3-28,56,37,27,24,16,8,69,46,18,30.18,30.04,2,0,3,0.00
2013-3-29,47,35,24,33,23,15,79,63,35,30.20,30.08,2,0,2,0.07
2013-3-30,59,46,38,38,35,32,83,67,43,30.12,29.99,2,0,3,0.00
2013-3-31,57,50,44,45,43,37,87,77,61,30.00,29.79,3,0,4,0.32
2013-4-1,60,50,40,43,37,32,80,62,41,29.95,29.79,4,0,5,0.00
2013-4-2,61,46,36,32,20,5,65,41,17,30.05,29.89,3,0,5,0.00
2013-4-3,56,46,38,28,24,22,55,44,29,30.15,29.97,3,0,4,0.00
2013-4-4,44,36,32,31,27,23,80,70,47,30.13,29.84,2,0,5,0.67
2013-4-5,63,46,36,42,33,29,82,62,31,30.02,29.80,2,0,3,0.00
2013-4-6,66,49,33,37,30,23,69,50,30,30.14,30.00,5,0,5,0.00
2013-4-7,62,51,39,43,35,28,65,56,46,30.16,30.04,3,0,4,0.00
2013-4-8,67,55,43,49,42,34,73,61,50,30.13,30.02,4,0,5,0.00
2013-4-9,76,61,47,54,46,39,75,60,45,30.20,30.09,4,0,4,0.00
2013-4-10,79,60,50,55,46,41,73,60,40,30.15,29.96,2,0,2,0.00
2013-4-11,66,61,56,55,48,45,80,63,51,30.01,29.75,3,1,3,0.29
2013-4-12,68,58,48,51,42,32,81,57,31,29.86,29.68,2,1,2,0.51
2013-4-13,68,54,45,34,30,27,60,43,22,30.01,29.81,2,0,2,0.00
2013-4-14,61,50,39,39,35,28,72,57,42,30.07,29.92,1,0,1,0.03
2013-4-15,65,54,47,48,44,39,76,69,53,30.17,29.90,3,0,3,0.00
2013-4-16,72,60,54,53,47,44,75,63,50,30.26,30.16,3,0,3,0.00
2013-4-17,72,58,54,53,47,44,73,67,49,30.24,30.12,2,0,3,0.22
2013-4-18,68,60,55,49,46,43,73,61,46,30.14,29.97,3,0,4,0.00
2013-4-19,60,55,38,50,44,27,72,68,53,29.98,29.75,10,1,10,0.76
2013-4-20,65,44,33,35,25,19,62,49,22,30.18,29.88,3,0,3,0.00
2013-4-21,64,46,34,38,29,21,62,51,34,30.30,30.18,4,0,4,0.00
2013-4-22,70,49,39,43,32,25,60,53,36,30.28,30.13,3,0,4,0.00
2013-4-23,73,51,34,47,34,21,61,53,34,30.19,30.08,3,0,3,0.00
2013-4-24,62,54,45,44,37,30,64,54,49,30.12,30.00,3,0,4,0.00
2013-4-25,72,54,39,39,25,8,59,38,8,30.24,30.05,4,0,4,0.00
2013-4-26,72,51,35,39,30,23,60,45,29,30.33,30.20,3,0,4,0.00
2013-4-27,52,47,44,36,32,28,60,56,45,30.31,30.16,3,0,3,0.01
2013-4-28,51,48,44,38,35,32,63,62,59,30.19,30.00,2,0,2,0.14
2013-4-29,67,55,48,46,38,33,64,53,42,30.02,29.94,2,0,4,0.00
2013-4-30,69,56,43,49,36,26,56,46,34,30.15,29.92,3,0,3,0.00
2013-5-1,67,57,52,46,32,25,48,40,29,30.20,30.12,2,0,4,0.00
2013-5-2,58,52,50,34,29,26,46,40,34,30.22,30.10,5,0,5,0.01
2013-5-3,52,49,48,28,26,23,44,41,34,30.16,29.97,4,0,4,0.05
2013-5-4,48,45,42,25,22,17,42,41,36,30.02,29.86,4,1,5,0.14
2013-5-5,48,46,44,26,24,22,43,42,42,29.90,29.74,3,1,4,0.96
2013-5-6,53,46,39,26,18,10,42,34,20,29.88,29.72,4,0,4,0.12
2013-5-7,64,46,34,42,16,4,52,31,10,29.94,29.83,2,0,3,0.00
2013-5-8,63,52,43,31,11,1,30,20,8,30.05,29.84,3,0,4,0.10
2013-5-9,76,60,47,49,25,-1,47,29,2,30.12,30.01,2,0,2,0.00
2013-5-10,68,59,49,40,10,-4,37,14,1,30.12,29.99,3,0,4,0.00
2013-5-11,67,58,53,29,3,-2,24,5,1,30.01,29.87,2,0,3,0.00
2013-5-12,64,53,44,36,15,-7,51,23,1,30.03,29.87,3,0,4,0.00
2013-5-13,63,47,39,31,25,20,52,43,26,30.13,30.00,2,0,4,0.00
2013-5-14,71,53,35,47,24,-16,52,35,5,30.19,30.09,3,0,4,0.00
2013-5-15,83,67,51,54,30,-4,48,26,1,30.13,30.02,2,0,3,0.00
2013-5-16,74,63,52,50,26,-3,47,26,1,30.10,29.99,2,0,3,0.00
2013-5-17,58,55,53,2,-1,-2,1,1,1,30.08,30.05,0,0,0,0.00
2013-5-18,60,58,56,3,2,0,2,1,1,30.12,30.04,2,0,2,0.81
2013-5-19,64,60,57,6,4,1,1,1,1,30.12,30.01,1,0,2,0.52
2013-5-20,59,56,54,3,0,-2,1,1,1,30.08,30.08,0,0,0,0.00
2013-5-21,79,63,56,39,6,0,26,2,1,30.09,29.97,2,0,2,0.95
2013-5-22,72,61,54,12,4,-1,1,1,1,30.06,29.91,1,0,1,0.81
2013-5-23,71,62,56,43,11,0,38,9,1,29.98,29.90,2,0,2,0.31
2013-5-24,65,57,48,39,17,-4,45,21,1,30.18,29.93,2,0,2,0.00
2013-5-25,70,56,40,45,25,-12,46,32,1,30.25,30.15,3,0,3,0.00
2013-5-26,69,56,47,46,16,-6,45,21,1,30.24,30.15,1,0,1,0.00
2013-5-27,72,61,48,49,18,-6,45,18,1,30.25,30.15,2,0,3,0.00
2013-5-28,74,64,55,39,10,0,32,5,1,30.23,30.14,2,0,3,0.00
2013-5-29,76,65,56,42,13,-11,35,8,1,30.25,30.17,2,0,3,0.00
2013-5-30,74,64,56,28,6,0,20,2,1,30.28,30.17,2,0,3,0.00
2013-5-31,74,65,58,14,7,2,1,1,1,30.25,30.11,2,0,3,0.00
2013-6-1,76,65,60,15,7,3,1,1,1,30.16,30.07,4,0,4,0.01
2013-6-2,67,63,60,9,5,3,1,1,1,30.11,29.91,2,0,2,0.91
2013-6-3,73,64,57,26,7,1,18,2,1,30.02,29.92,2,0,3,0.00
2013-6-4,74,64,53,14,6,-2,10,1,1,30.11,29.98,2,0,2,0.00
2013-6-5,74,66,58,14,8,2,1,1,1,30.11,29.99,2,0,3,0.65
2013-6-6,67,62,57,9,5,1,1,1,1,30.02,29.80,1,0,2,0.02
2013-6-7,75,64,59,15,7,3,1,1,1,29.90,29.73,2,0,3,0.08
2013-6-8,72,64,56,12,6,0,1,1,1,30.14,29.89,1,0,2,0.00
2013-6-9,73,65,61,13,7,4,1,1,1,30.17,30.04,2,0,3,0.83
2013-6-10,68,63,60,10,6,3,1,1,1,30.08,29.97,3,0,4,0.59
2013-6-11,76,67,59,50,17,2,40,10,1,30.09,29.99,2,0,3,0.02
2013-6-12,82,71,60,28,12,4,16,1,1,30.12,30.00,2,0,2,0.00
2013-6-13,80,69,60,49,13,4,34,4,1,30.05,29.82,2,0,4,0.24
2013-6-14,77,64,53,48,18,-2,39,15,1,30.05,29.89,2,0,3,0.00
2013-6-15,74,62,49,45,9,-5,37,6,1,30.17,30.04,2,0,2,0.00
2013-6-16,75,65,53,29,7,-2,19,3,1,30.18,30.09,2,0,2,0.00
2013-6-17,73,66,62,13,8,4,1,1,1,30.12,30.01,2,0,2,0.18
2013-6-18,71,65,61,11,7,4,1,1,1,30.02,29.86,2,0,2,0.00
2013-6-19,70,64,59,11,6,2,1,1,1,30.15,29.92,1,0,2,0.00
2013-6-20,77,64,56,16,6,0,1,1,1,30.25,30.10,2,0,3,0.00
2013-6-21,74,64,57,14,7,1,1,1,1,30.28,30.17,3,0,4,0.00
2013-6-22,80,64,55,37,7,0,25,2,1,30.26,30.17,2,0,2,0.00
2013-6-23,70,63,55,11,6,-1,1,1,1,30.25,30.14,1,0,2,0.01
2013-6-24,75,67,63,15,9,6,1,1,1,30.26,30.14,2,0,2,0.01
2013-6-25,76,67,59,16,9,3,1,1,1,30.21,30.08,2,0,2,0.00
2013-6-26,77,67,60,16,9,4,1,1,1,30.12,30.00,2,0,2,0.00
2013-6-27,78,69,62,17,10,5,1,1,1,30.05,29.87,2,0,3,0.09
2013-6-28,79,70,64,46,13,6,32,4,1,29.92,29.76,3,0,3,0.00
2013-6-29,78,68,59,53,22,3,44,16,1,29.81,29.70,2,0,3,0.00
2013-6-30,74,63,55,50,9,0,44,5,1,29.89,29.74,2,0,3,0.15
2013-7-1,72,63,60,12,6,3,1,1,1,30.00,29.84,2,0,2,0.80
2013-7-2,71,65,60,12,7,3,1,1,1,30.17,29.98,2,0,3,0.02
2013-7-3,66,62,59,8,5,2,1,1,1,30.25,30.09,2,0,3,0.42
2013-7-4,65,62,60,7,5,3,1,1,1,30.22,30.12,2,0,4,0.35
2013-7-5,70,58,0,11,5,-67,1,1,1,30.26,30.14,2,0,3,0.67
2013-7-6,0,0,0,0,0,-67,1,1,1,30.23,30.14,2,0,2,0.63
2013-7-7,0,0,0,0,0,-67,1,1,1,30.21,30.13,2,0,2,0.02
2013-7-8,0,0,0,0,0,-67,1,1,1,30.23,30.16,2,0,2,0.02
2013-7-9,0,0,0,0,0,-67,1,1,1,30.22,30.09,2,0,2,0.04
2013-7-10,69,0,0,10,-6,-67,26,1,1,30.18,30.01,2,0,2,0.00
2013-7-11,68,1,0,10,0,0,1,1,1,30.04,29.92,1,0,1,0.02
2013-7-12,75,12,0,15,2,0,1,1,1,30.03,29.95,1,0,1,0.00
2013-7-13,0,0,0,0,0,0,1,1,1,30.14,29.99,1,0,1,0.00
2013-7-14,0,0,0,0,0,0,1,1,1,30.25,30.12,1,0,1,0.04
2013-7-15,64,1,0,7,0,0,1,1,1,30.34,30.24,1,0,1,0.00
2013-7-16,83,69,0,26,12,0,15,2,1,30.36,30.25,2,0,2,0.00
2013-7-17,78,70,64,17,11,6,1,1,1,30.32,30.19,0,0,0,0.05
2013-7-18,78,69,61,17,10,4,1,1,1,30.26,30.11,2,0,2,0.00
2013-7-19,79,69,61,59,15,4,52,6,1,30.20,30.04,1,0,1,0.00
2013-7-20,74,68,64,14,9,6,1,1,1,30.12,30.01,1,0,1,0.00
2013-7-21,77,67,62,16,9,5,1,1,1,30.09,29.97,2,0,2,0.02
2013-7-22,74,67,61,14,9,4,1,1,1,30.06,29.92,1,0,1,0.00
2013-7-23,76,68,62,45,13,5,33,5,1,29.99,29.89,1,0,1,0.00
2013-7-24,78,68,62,57,13,5,49,5,1,29.94,29.87,1,0,1,0.00
2013-7-25,75,64,58,15,6,1,1,1,1,30.07,29.89,2,0,2,0.94
2013-7-26,72,64,57,13,6,1,1,1,1,30.13,30.06,1,0,1,0.06
2013-7-27,70,66,63,11,8,6,1,1,1,30.08,29.95,1,0,1,0.00
2013-7-28,74,66,59,58,20,2,58,16,1,30.07,29.97,1,0,1,0.00
2013-7-29,75,65,58,55,28,2,57,27,1,30.20,30.03,1,0,1,0.00
2013-7-30,76,65,55,58,16,0,53,12,1,30.24,30.13,2,0,2,0.00
2013-7-31,68,66,64,10,8,7,1,1,1,30.20,29.99,0,0,0,0.00
2013-8-1,77,69,62,56,19,5,49,11,1,30.04,29.96,2,0,2,0.00
2013-8-2,74,68,60,24,10,3,16,1,1,30.10,29.99,2,0,3,0.00
2013-8-3,76,67,61,58,26,4,55,23,1,30.10,30.02,1,0,2,0.00
2013-8-4,77,69,62,56,24,5,52,18,1,30.09,30.01,2,0,2,0.00
2013-8-5,74,66,59,36,10,2,26,4,1,30.11,30.00,2,0,2,0.00
2013-8-6,75,68,65,38,11,7,29,2,1,30.10,29.99,2,0,2,0.06
2013-8-7,67,65,64,8,7,7,1,1,1,30.11,30.02,1,0,1,0.35
2013-8-8,72,67,64,12,8,7,1,1,1,30.12,30.04,1,0,2,0.09
2013-8-9,73,68,65,13,10,7,1,1,1,30.16,30.08,2,0,2,0.02
2013-8-10,74,68,64,14,9,6,1,1,1,30.18,30.08,2,0,2,0.11
2013-8-11,76,67,62,20,9,5,13,1,1,30.20,30.09,1,0,2,0.12
2013-8-12,78,69,63,42,11,6,28,3,1,30.17,30.01,2,0,2,0.00
2013-8-13,75,67,63,39,11,6,28,4,1,30.06,29.88,2,0,2,0.00
2013-8-14,71,63,61,43,7,4,37,3,1,30.09,29.94,1,0,1,0.00
2013-8-15,63,59,56,18,4,0,18,3,1,30.13,30.05,1,0,1,0.00
2013-8-16,66,59,54,38,11,-1,40,12,1,30.15,30.03,1,0,1,0.00
2013-8-17,63,59,56,6,3,0,8,1,1,30.16,30.10,1,0,1,0.06
2013-8-18,67,62,58,9,4,2,1,1,1,30.22,30.12,0,0,0,0.02
2013-8-19,65,62,60,7,5,3,1,1,1,30.21,30.09,0,0,0,0.28
2013-8-20,71,64,59,11,6,2,1,1,1,30.22,30.11,1,0,1,0.00
2013-8-21,66,64,61,8,6,4,1,1,1,30.26,30.17,0,0,0,0.05
2013-8-22,74,65,60,14,8,3,5,1,1,30.20,30.07,1,0,1,0.00
2013-8-23,78,66,59,59,15,2,56,10,1,30.14,30.05,1,0,1,0.10
2013-8-24,73,63,57,43,9,1,34,5,1,30.29,30.12,2,0,2,0.00
2013-8-25,69,61,52,38,12,-3,33,11,1,30.36,30.28,1,0,1,0.00
2013-8-26,71,61,51,45,11,-4,41,9,1,30.33,30.13,0,0,0,0.00
2013-8-27,73,64,53,50,14,-2,45,10,1,30.19,30.09,1,0,1,0.00
2013-8-28,76,68,60,49,17,4,42,10,1,30.10,30.01,1,0,1,0.00
2013-8-29,79,71,66,58,21,8,50,11,1,30.06,30.01,1,0,1,0.00
2013-8-30,68,67,65,9,8,7,1,1,1,30.08,30.04,0,0,0,0.00
2013-10-14,64,60,56,17,6,0,18,7,1,30.25,30.16,1,0,1,0.00
2013-10-15,63,57,54,38,6,-2,39,7,1,30.21,30.08,2,0,2,0.00
2013-10-16,61,55,47,18,0,-7,20,3,1,30.08,30.00,2,0,2,0.00
2013-10-17,60,59,56,3,3,0,1,1,1,30.00,29.92,1,0,1,0.02
2013-10-18,62,56,50,38,14,-4,45,18,1,30.02,29.92,2,0,3,0.00
2013-10-19,56,50,46,41,11,-6,61,21,1,29.99,29.85,2,0,2,0.00
2013-10-20,61,46,35,44,11,-16,61,27,1,30.08,29.91,3,0,3,0.00
2013-10-21,59,46,35,40,-2,-17,48,8,1,30.12,29.98,2,0,3,0.00
2013-10-22,62,52,45,46,12,-9,58,21,1,30.04,29.85,2,0,3,0.00
2013-10-23,50,43,33,33,18,-10,60,41,1,29.98,29.76,4,0,4,0.00
2013-10-24,48,40,31,34,25,15,58,55,48,30.11,29.97,3,0,4,0.00
2013-10-25,53,37,29,31,22,15,62,54,38,30.23,30.05,2,0,2,0.00
2013-10-26,54,37,24,32,21,-2,59,52,28,30.23,30.04,2,0,3,0.00
2013-10-27,56,50,43,36,18,-8,49,31,1,30.13,30.01,2,0,3,0.00
2013-10-28,58,51,46,40,1,-8,54,8,1,30.25,30.08,1,0,2,0.00
2013-10-29,61,53,45,45,19,-8,57,30,1,30.31,30.21,2,0,3,0.00
2013-10-30,70,56,46,53,13,-8,56,17,1,30.28,30.15,2,0,2,0.00
2013-10-31,59,55,52,2,-1,-3,1,1,1,30.20,29.94,4,1,8,0.04
2013-11-1,75,60,46,55,30,-1,61,35,1,29.86,29.70,4,0,4,0.00
2013-11-2,58,47,38,41,25,8,63,44,22,29.99,29.79,3,0,3,0.00
2013-11-3,63,43,34,43,19,-17,62,41,1,30.27,29.97,3,0,3,0.00
2013-11-4,59,41,34,42,28,21,67,60,47,30.38,30.26,3,0,3,0.00
2013-11-5,72,44,31,42,28,14,66,55,32,30.39,30.26,2,0,2,0.00
2013-11-6,58,51,43,32,0,-8,63,6,1,30.33,30.12,2,0,2,0.00
2013-11-7,66,50,38,48,20,-4,58,34,1,30.12,29.99,2,0,5,0.00
2013-11-8,65,41,31,33,22,16,64,50,22,30.21,30.05,2,0,2,0.00
2013-11-9,51,38,27,31,23,11,64,55,42,30.25,30.15,3,0,3,0.00
2013-11-10,48,46,41,27,23,19,54,41,33,30.20,30.13,2,0,2,0.00